When you browse on this site, cookies collect data to enhance your experience and personalize the content and advertising you see.
Visit our Privacy Policy to learn more. By continuing to use the site, you agree to this use of cookies and data.
  • In Portugal
  • List of Countries
  • For 7 days
  • Water Temperature
  • Satellite Maps
  • Weather Map
  • Weather Widgets
  • user-avatar
    Login

    Hourly Weather Vedenka

    Today, 24 April, Wednesday

    Time Temperature Precipitation Wind Pressure Humidity
    00:00 +13°C° 0 mm 3 mps 750 mmHg 72%
    01:00 +13°C° 0 mm 2 mps 750 mmHg 65%
    02:00 +12°C° 0 mm 2 mps 750 mmHg 58%
    03:00 +11°C° 0 mm 1 mps 750 mmHg 53%
    04:00 +11°C° 0 mm 1 mps 751 mmHg 52%
    05:00 +10°C° 0 mm 2 mps 751 mmHg 50%
    06:00 +10°C° 0 mm 2 mps 751 mmHg 49%
    07:00 +12°C° 0 mm 2 mps 751 mmHg 44%
    08:00 +12°C° 0 mm 3 mps 751 mmHg 39%
    09:00 +13°C° 0 mm 4 mps 751 mmHg 40%
    10:00 +13°C° 0.1 mm 4 mps 751 mmHg 37%
    11:00 +13°C° 0.1 mm 5 mps 751 mmHg 35%
    12:00 +13°C° 0.1 mm 5 mps 752 mmHg 32%
    13:00 +14°C° 0 mm 6 mps 751 mmHg 27%
    14:00 +15°C° 0 mm 6 mps 751 mmHg 21%
    15:00 +16°C° 0 mm 6 mps 751 mmHg 15%
    16:00 +15°C° 0 mm 5 mps 751 mmHg 16%
    17:00 +14°C° 0 mm 5 mps 751 mmHg 17%
    18:00 +13°C° 0 mm 5 mps 751 mmHg 18%
    19:00 +11°C° 0 mm 4 mps 751 mmHg 20%
    20:00 +10°C° 0 mm 3 mps 751 mmHg 21%
    21:00 +8°C° 0 mm 2 mps 751 mmHg 23%
    22:00 +8°C° 0 mm 2 mps 752 mmHg 24%
    23:00 +7°C° 0 mm 2 mps 752 mmHg 26%

    Tomorrow, 25 April, Thursday

    Time Temperature Precipitation Wind Pressure Humidity
    00:00 +6°C° 0 mm 2 mps 752 mmHg 28%
    01:00 +6°C° 0 mm 2 mps 752 mmHg 32%
    02:00 +5°C° 0 mm 2 mps 752 mmHg 35%
    03:00 +5°C° 0 mm 2 mps 752 mmHg 39%
    04:00 +5°C° 0 mm 2 mps 753 mmHg 43%
    05:00 +4°C° 0 mm 2 mps 753 mmHg 48%
    06:00 +3°C° 0 mm 3 mps 753 mmHg 53%
    07:00 +5°C° 0 mm 3 mps 753 mmHg 51%
    08:00 +7°C° 0 mm 3 mps 753 mmHg 49%
    09:00 +9°C° 0 mm 3 mps 754 mmHg 47%
    10:00 +10°C° 0 mm 3 mps 754 mmHg 44%
    11:00 +11°C° 0 mm 3 mps 754 mmHg 40%
    12:00 +12°C° 0 mm 3 mps 754 mmHg 36%
    13:00 +12°C° 0 mm 3 mps 754 mmHg 35%
    14:00 +12°C° 0 mm 3 mps 754 mmHg 34%
    15:00 +12°C° 0 mm 3 mps 754 mmHg 33%
    16:00 +12°C° 0 mm 4 mps 754 mmHg 32%
    17:00 +12°C° 0 mm 4 mps 754 mmHg 32%
    18:00 +12°C° 0 mm 4 mps 754 mmHg 31%
    19:00 +10°C° 0 mm 4 mps 754 mmHg 35%
    20:00 +8°C° 0 mm 4 mps 755 mmHg 38%
    21:00 +8°C° 0 mm 3 mps 755 mmHg 42%
    22:00 +7°C° 0 mm 3 mps 756 mmHg 44%
    23:00 +7°C° 0 mm 3 mps 756 mmHg 46%

    Day after tomorrow, 26 April, Friday

    Time Temperature Precipitation Wind Pressure Humidity
    00:00 +5°C° 0 mm 3 mps 756 mmHg 48%
    01:00 +4°C° 0 mm 3 mps 756 mmHg 50%
    02:00 +4°C° 0 mm 3 mps 756 mmHg 52%
    03:00 +4°C° 0 mm 2 mps 756 mmHg 54%
    04:00 +4°C° 0 mm 2 mps 756 mmHg 54%
    05:00 +4°C° 0 mm 2 mps 756 mmHg 55%
    06:00 +3°C° 0 mm 2 mps 756 mmHg 56%
    07:00 +4°C° 0 mm 3 mps 757 mmHg 49%
    08:00 +7°C° 0 mm 3 mps 757 mmHg 42%
    09:00 +9°C° 0 mm 3 mps 757 mmHg 35%
    10:00 +10°C° 0 mm 3 mps 756 mmHg 31%
    11:00 +11°C° 0 mm 3 mps 756 mmHg 26%
    12:00 +12°C° 0 mm 4 mps 756 mmHg 22%
    13:00 +13°C° 0 mm 4 mps 755 mmHg 21%
    14:00 +13°C° 0 mm 4 mps 755 mmHg 21%
    15:00 +14°C° 0 mm 4 mps 754 mmHg 20%
    16:00 +13°C° 0 mm 3 mps 754 mmHg 22%
    17:00 +13°C° 0 mm 3 mps 754 mmHg 23%
    18:00 +12°C° 0 mm 3 mps 754 mmHg 25%
    19:00 +11°C° 0 mm 3 mps 754 mmHg 27%
    20:00 +10°C° 0 mm 3 mps 755 mmHg 28%
    21:00 +8°C° 0 mm 2 mps 755 mmHg 30%
    22:00 +8°C° 0 mm 2 mps 755 mmHg 31%
    23:00 +7°C° 0 mm 2 mps 755 mmHg 33%

    27 April, Saturday

    Time Temperature Precipitation Wind Pressure Humidity
    00:00 +6°C° 0 mm 2 mps 755 mmHg 34%
    01:00 +7°C° 0 mm 1 mps 755 mmHg 36%
    02:00 +6°C° 0 mm 1 mps 755 mmHg 38%
    03:00 +5°C° 0 mm 1 mps 755 mmHg 40%
    04:00 +5°C° 0 mm 1 mps 755 mmHg 41%
    05:00 +4°C° 0 mm 0 mps 755 mmHg 42%
    06:00 +5°C° 0 mm 0 mps 756 mmHg 43%
    07:00 +7°C° 0 mm 0 mps 756 mmHg 38%
    08:00 +11°C° 0 mm 1 mps 755 mmHg 33%
    09:00 +13°C° 0 mm 1 mps 755 mmHg 27%
    10:00 +15°C° 0 mm 1 mps 755 mmHg 25%
    11:00 +16°C° 0 mm 2 mps 755 mmHg 23%
    12:00 +17°C° 0 mm 2 mps 754 mmHg 21%
    13:00 +18°C° 0 mm 3 mps 754 mmHg 21%
    14:00 +18°C° 0 mm 3 mps 753 mmHg 20%
    15:00 +19°C° 0 mm 3 mps 753 mmHg 19%
    16:00 +18°C° 0 mm 3 mps 753 mmHg 21%
    17:00 +18°C° 0 mm 3 mps 753 mmHg 23%
    18:00 +17°C° 0 mm 2 mps 753 mmHg 26%
    19:00 +15°C° 0 mm 2 mps 753 mmHg 27%
    20:00 +14°C° 0 mm 1 mps 754 mmHg 29%
    21:00 +12°C° 0 mm 1 mps 754 mmHg 31%
    22:00 +11°C° 0 mm 1 mps 754 mmHg 33%
    23:00 +11°C° 0 mm 1 mps 755 mmHg 35%

    28 April, Sunday

    Time Temperature Precipitation Wind Pressure Humidity
    00:00 +9°C° 0 mm 2 mps 755 mmHg 36%
    01:00 +8°C° 0 mm 2 mps 755 mmHg 39%
    02:00 +7°C° 0 mm 2 mps 755 mmHg 43%
    03:00 +7°C° 0 mm 2 mps 755 mmHg 46%
    04:00 +7°C° 0 mm 2 mps 755 mmHg 49%
    05:00 +7°C° 0 mm 2 mps 756 mmHg 52%
    06:00 +6°C° 0 mm 2 mps 756 mmHg 56%
    07:00 +9°C° 0 mm 3 mps 756 mmHg 49%
    08:00 +11°C° 0 mm 3 mps 756 mmHg 43%
    09:00 +14°C° 0 mm 3 mps 756 mmHg 36%
    10:00 +17°C° 0 mm 3 mps 755 mmHg 31%
    11:00 +19°C° 0 mm 3 mps 755 mmHg 25%
    12:00 +21°C° 0 mm 3 mps 755 mmHg 19%
    13:00 +21°C° 0 mm 3 mps 754 mmHg 19%
    14:00 +21°C° 0 mm 3 mps 754 mmHg 18%
    15:00 +22°C° 0 mm 4 mps 753 mmHg 18%
    16:00 +21°C° 0 mm 3 mps 753 mmHg 20%
    17:00 +20°C° 0 mm 3 mps 753 mmHg 23%
    18:00 +19°C° 0 mm 3 mps 753 mmHg 25%
    19:00 +17°C° 0 mm 2 mps 754 mmHg 27%
    20:00 +16°C° 0 mm 2 mps 754 mmHg 28%
    21:00 +14°C° 0 mm 2 mps 754 mmHg 30%
    22:00 +14°C° 0 mm 2 mps 755 mmHg 31%
    23:00 +14°C° 0 mm 2 mps 755 mmHg 32%

    29 April, Monday

    Time Temperature Precipitation Wind Pressure Humidity
    00:00 +14°C° 0 mm 2 mps 755 mmHg 33%
    01:00 +12°C° 0 mm 3 mps 755 mmHg 36%
    02:00 +12°C° 0 mm 3 mps 755 mmHg 40%
    03:00 +11°C° 0 mm 3 mps 755 mmHg 43%
    04:00 +11°C° 0.3 mm 3 mps 755 mmHg 51%
    05:00 +10°C° 0.3 mm 2 mps 755 mmHg 58%
    06:00 +9°C° 0.3 mm 2 mps 755 mmHg 66%
    07:00 +10°C° 0.2 mm 2 mps 755 mmHg 64%
    08:00 +12°C° 0.2 mm 2 mps 755 mmHg 62%
    09:00 +13°C° 0.2 mm 2 mps 754 mmHg 60%
    10:00 +14°C° 0.1 mm 2 mps 754 mmHg 56%
    11:00 +14°C° 0.1 mm 3 mps 754 mmHg 52%
    12:00 +16°C° 0.1 mm 3 mps 753 mmHg 48%
    13:00 +16°C° 0 mm 3 mps 753 mmHg 46%
    14:00 +17°C° 0 mm 3 mps 752 mmHg 44%
    15:00 +18°C° 0 mm 4 mps 752 mmHg 42%
    16:00 +16°C° 0.3 mm 3 mps 751 mmHg 52%
    17:00 +15°C° 0.3 mm 2 mps 751 mmHg 63%
    18:00 +14°C° 0.3 mm 1 mps 751 mmHg 73%
    19:00 +13°C° 0.2 mm 2 mps 751 mmHg 76%
    20:00 +13°C° 0.2 mm 2 mps 751 mmHg 79%
    21:00 +11°C° 0.2 mm 3 mps 751 mmHg 82%
    22:00 +11°C° 0 mm 3 mps 751 mmHg 83%
    23:00 +10°C° 0 mm 2 mps 751 mmHg 84%
    Show more